Location: Birkenwerder
(52.6919°N, 13.2774°E)
Time: 23:39:16
(UTC+00:00)

Cosmos 1570 Rocket - Pass Details

Date: 01 October 2020
Orbit: 763 x 788 km, 74.1° (Epoch: 24 October)

Event Time Altitude Azimuth Distance (km) Brightness Sun altitude
Exits shadow 02:17:41 65° 175° (S) 869 4.0 -25.6°
Maximum altitude 02:18:26 78° 113° (ESE) 812 4.0 -25.5°
Drops below altitude 10° 02:23:49 10° 28° (NNE) 2,363 7.3 -24.8°
Sets 02:26:13 0° 27° (NNE) 3,297 8.2 -24.5°
